RYR5599 EGPH-LIRA

Flight info

Callsign RYR5599
Flight time 2h 35m
Altitude 37000
Route TLA Y96 OTBUN DCT GODOS DCT AMGOD DCT OTMEC DCT TUSUK DCT ULNOK L607 ABUKA DCT TEDGO L607 UTABA M738 BATUB DCT TIRUL M738 NATAG DCT LORLO DCT DIPVO DCT NIKMA Y106 GITOD
Aircraft B738/M-SDE3FGILRWY/SB1

Departure

Time 2026-04-22 13:09
Airport Edinburgh Airport (EGPH)

Arrival

Time 2026-04-22 15:44
Airport Ciampino–G. B. Pastine International Airport (LIRA)
Time Latitude Longitude Altitude Speed Heading
2026-04-22 12:32 55.94800 -3.35681 111 ft 0 kts 208°
2026-04-22 12:54 55.94805 -3.35676 115 ft 4 kts 208°
2026-04-22 12:55 55.94826 -3.35655 111 ft 2 kts 208°
2026-04-22 12:55 55.94844 -3.35630 114 ft 4 kts 245°
2026-04-22 12:55 55.94847 -3.35587 111 ft 4 kts 288°
2026-04-22 12:55 55.94844 -3.35569 114 ft 0 kts 298°
2026-04-22 13:00 55.94844 -3.35570 114 ft 0 kts 298°
2026-04-22 13:01 55.94849 -3.35588 111 ft 3 kts 298°
2026-04-22 13:01 55.94865 -3.35639 114 ft 6 kts 298°
2026-04-22 13:01 55.94890 -3.35719 112 ft 8 kts 298°
2026-04-22 13:01 55.94920 -3.35817 115 ft 10 kts 302°
2026-04-22 13:02 55.94981 -3.35858 115 ft 10 kts 17°
2026-04-22 13:02 55.95040 -3.35843 115 ft 8 kts 332°
2026-04-22 13:02 55.95076 -3.35936 115 ft 10 kts 300°
2026-04-22 13:02 55.95105 -3.36060 114 ft 12 kts 288°
2026-04-22 13:03 55.95132 -3.36208 113 ft 13 kts 288°
2026-04-22 13:03 55.95112 -3.36348 113 ft 13 kts 239°
2026-04-22 13:03 55.95064 -3.36491 114 ft 14 kts 239°
2026-04-22 13:03 55.95011 -3.36648 113 ft 16 kts 238°
2026-04-22 13:04 55.94952 -3.36821 113 ft 17 kts 239°
2026-04-22 13:04 55.94889 -3.37008 112 ft 18 kts 238°
2026-04-22 13:04 55.94820 -3.37210 115 ft 20 kts 238°
2026-04-22 13:04 55.94748 -3.37421 114 ft 21 kts 239°
2026-04-22 13:05 55.94671 -3.37648 114 ft 22 kts 239°
2026-04-22 13:05 55.94592 -3.37882 115 ft 12 kts 239°
2026-04-22 13:05 55.94577 -3.37924 115 ft 5 kts 239°
2026-04-22 13:05 55.94558 -3.37981 112 ft 6 kts 238°
2026-04-22 13:06 55.94532 -3.38057 115 ft 8 kts 239°
2026-04-22 13:06 55.94501 -3.38152 113 ft 10 kts 239°
2026-04-22 13:06 55.94463 -3.38262 113 ft 11 kts 238°
2026-04-22 13:06 55.94420 -3.38389 113 ft 13 kts 239°
2026-04-22 13:07 55.94372 -3.38532 113 ft 14 kts 239°
2026-04-22 13:07 55.94318 -3.38689 113 ft 15 kts 238°
2026-04-22 13:07 55.94281 -3.38838 115 ft 10 kts 282°
2026-04-22 13:07 55.94335 -3.38919 115 ft 11 kts 328°
2026-04-22 13:08 55.94406 -3.38974 113 ft 9 kts 13°
2026-04-22 13:08 55.94434 -3.38917 113 ft 4 kts 57°
2026-04-22 13:08 55.94541 -3.38600 112 ft 64 kts 58°
2026-04-22 13:08 55.94885 -3.37588 111 ft 124 kts 59°
2026-04-22 13:09 55.95395 -3.36099 410 ft 146 kts 59°
2026-04-22 13:09 55.95942 -3.34544 1083 ft 154 kts 57°
2026-04-22 13:09 55.96687 -3.33226 1925 ft 154 kts 45°
2026-04-22 13:09 55.97541 -3.31852 2399 ft 181 kts 45°
2026-04-22 13:10 55.98548 -3.30214 2652 ft 208 kts 45°
2026-04-22 13:10 55.99664 -3.28414 3184 ft 219 kts 45°
2026-04-22 13:10 56.00845 -3.26505 3497 ft 242 kts 45°
2026-04-22 13:10 56.02145 -3.24400 4001 ft 259 kts 45°
2026-04-22 13:11 56.03471 -3.22258 4905 ft 260 kts 45°
2026-04-22 13:11 56.04753 -3.19941 5598 ft 261 kts 60°
2026-04-22 13:11 56.05340 -3.16939 5976 ft 256 kts 87°
2026-04-22 13:11 56.05269 -3.13737 6006 ft 259 kts 97°
2026-04-22 13:12 56.04901 -3.10631 5984 ft 258 kts 117°
2026-04-22 13:12 56.03806 -3.08114 6124 ft 256 kts 141°
2026-04-22 13:12 56.02290 -3.06480 6772 ft 259 kts 152°
2026-04-22 13:12 56.00673 -3.05061 7684 ft 260 kts 153°
2026-04-22 13:13 55.99021 -3.03652 8486 ft 264 kts 153°
2026-04-22 13:13 55.97357 -3.02237 9345 ft 267 kts 153°
2026-04-22 13:13 55.95679 -3.00805 10150 ft 271 kts 153°
2026-04-22 13:13 55.93970 -2.99342 10910 ft 276 kts 153°
2026-04-22 13:14 55.92172 -2.97796 11213 ft 298 kts 153°
2026-04-22 13:14 55.90237 -2.96130 11600 ft 314 kts 153°
2026-04-22 13:14 55.88273 -2.94438 12257 ft 321 kts 154°
2026-04-22 13:14 55.86253 -2.92697 13067 ft 322 kts 154°
2026-04-22 13:15 55.84220 -2.90947 13814 ft 327 kts 154°
2026-04-22 13:15 55.82162 -2.89176 14529 ft 330 kts 154°
2026-04-22 13:15 55.80082 -2.87387 15231 ft 333 kts 154°
2026-04-22 13:15 55.77980 -2.85579 15921 ft 336 kts 154°
2026-04-22 13:16 55.75861 -2.83760 16570 ft 341 kts 154°
2026-04-22 13:16 55.73739 -2.81940 17232 ft 344 kts 155°
2026-04-22 13:16 55.71568 -2.80080 17925 ft 347 kts 155°
2026-04-22 13:16 55.69372 -2.78200 18567 ft 351 kts 155°
2026-04-22 13:17 55.67148 -2.76299 19151 ft 356 kts 155°
2026-04-22 13:17 55.64928 -2.74404 19696 ft 359 kts 155°
2026-04-22 13:17 55.62662 -2.72472 20242 ft 363 kts 156°
2026-04-22 13:17 55.60365 -2.70517 20769 ft 368 kts 156°
2026-04-22 13:18 55.58042 -2.68542 21293 ft 372 kts 156°
2026-04-22 13:18 55.55689 -2.66544 21787 ft 377 kts 156°
2026-04-22 13:18 55.53303 -2.64520 22275 ft 382 kts 156°
2026-04-22 13:18 55.50932 -2.62511 22784 ft 385 kts 156°
2026-04-22 13:19 55.48489 -2.60445 23278 ft 390 kts 156°
2026-04-22 13:19 55.46023 -2.58361 23728 ft 394 kts 157°
2026-04-22 13:19 55.43560 -2.56283 24180 ft 399 kts 157°
2026-04-22 13:19 55.41046 -2.54165 24542 ft 403 kts 157°
2026-04-22 13:20 55.38495 -2.52018 24890 ft 408 kts 157°
2026-04-22 13:20 55.35919 -2.49853 25229 ft 412 kts 157°
2026-04-22 13:20 55.33318 -2.47671 25587 ft 416 kts 157°
2026-04-22 13:20 55.30710 -2.45350 25923 ft 422 kts 150°
2026-04-22 13:21 55.28370 -2.42166 26242 ft 430 kts 137°
2026-04-22 13:21 55.26441 -2.38182 26616 ft 436 kts 125°
2026-04-22 13:21 55.24907 -2.33546 26984 ft 440 kts 120°
2026-04-22 13:21 55.23457 -2.28792 27313 ft 444 kts 119°
2026-04-22 13:22 55.22015 -2.23967 27658 ft 448 kts 119°
2026-04-22 13:22 55.20564 -2.19119 27999 ft 451 kts 119°
2026-04-22 13:22 55.19089 -2.14238 28337 ft 454 kts 119°
2026-04-22 13:22 55.17586 -2.09323 28686 ft 458 kts 119°
2026-04-22 13:23 55.16089 -2.04473 28992 ft 461 kts 120°
2026-04-22 13:23 55.14554 -1.99533 29294 ft 464 kts 120°
2026-04-22 13:23 55.13003 -1.94564 29579 ft 468 kts 120°
2026-04-22 13:23 55.11429 -1.89541 29880 ft 471 kts 120°
2026-04-22 13:24 55.10379 -1.86194 30069 ft 473 kts 120°
2026-04-22 13:24 55.08786 -1.81130 30355 ft 476 kts 120°
2026-04-22 13:24 55.07184 -1.76044 30626 ft 479 kts 120°
2026-04-22 13:24 55.05567 -1.70921 30906 ft 480 kts 120°
2026-04-22 13:25 55.03972 -1.65877 31253 ft 479 kts 120°
2026-04-22 13:25 55.02357 -1.60780 31597 ft 479 kts 120°
2026-04-22 13:25 55.00742 -1.55692 31927 ft 478 kts 120°
2026-04-22 13:25 54.99129 -1.50623 32333 ft 476 kts 120°
2026-04-22 13:26 54.97546 -1.45657 32788 ft 472 kts 120°
2026-04-22 13:26 54.95951 -1.40664 33240 ft 468 kts 120°
2026-04-22 13:26 54.94367 -1.35717 33651 ft 466 kts 120°
2026-04-22 13:26 54.92790 -1.30804 34009 ft 464 kts 120°
2026-04-22 13:27 54.91217 -1.25912 34377 ft 462 kts 120°
2026-04-22 13:27 54.89650 -1.21047 34721 ft 460 kts 120°
2026-04-22 13:27 54.88088 -1.16209 34989 ft 459 kts 120°
2026-04-22 13:27 54.86547 -1.11446 35224 ft 458 kts 120°
2026-04-22 13:28 54.84983 -1.06619 35466 ft 457 kts 120°
2026-04-22 13:28 54.83416 -1.01794 35716 ft 457 kts 120°
2026-04-22 13:28 54.81855 -0.96998 35944 ft 456 kts 120°
2026-04-22 13:28 54.80288 -0.92194 36164 ft 456 kts 120°
2026-04-22 13:29 54.78744 -0.87467 36381 ft 456 kts 120°
2026-04-22 13:29 54.77174 -0.82671 36610 ft 455 kts 120°
2026-04-22 13:29 54.75612 -0.77909 36857 ft 454 kts 120°
2026-04-22 13:29 54.74049 -0.73152 37099 ft 453 kts 120°
2026-04-22 13:30 54.72504 -0.68459 37287 ft 453 kts 120°
2026-04-22 13:30 54.70942 -0.63723 37493 ft 451 kts 120°
2026-04-22 13:30 54.69386 -0.59016 37498 ft 451 kts 120°
2026-04-22 13:31 54.66255 -0.49571 37518 ft 454 kts 120°
2026-04-22 13:31 54.63093 -0.40073 37527 ft 458 kts 120°
2026-04-22 13:32 54.59917 -0.30567 37515 ft 460 kts 120°
2026-04-22 13:32 54.56719 -0.21032 37509 ft 458 kts 120°
2026-04-22 13:33 54.53540 -0.11590 37509 ft 458 kts 120°
2026-04-22 13:33 54.50333 -0.02104 37511 ft 457 kts 120°
2026-04-22 13:34 54.47124 0.07353 37500 ft 455 kts 120°
2026-04-22 13:34 54.43962 0.16635 37496 ft 450 kts 120°
2026-04-22 13:35 54.40798 0.25887 37500 ft 446 kts 120°
2026-04-22 13:35 54.37669 0.35004 37505 ft 444 kts 120°
2026-04-22 13:36 54.34508 0.44181 37509 ft 446 kts 120°
2026-04-22 13:36 54.31341 0.53339 37513 ft 451 kts 120°
2026-04-22 13:37 54.28125 0.62607 37501 ft 454 kts 120°
2026-04-22 13:37 54.24869 0.71950 37502 ft 457 kts 120°
2026-04-22 13:38 54.21638 0.81188 37485 ft 454 kts 120°
2026-04-22 13:38 54.16800 0.94955 37488 ft 446 kts 120°
2026-04-22 13:39 54.13632 1.03930 37481 ft 441 kts 120°
2026-04-22 13:39 54.10458 1.12889 37507 ft 442 kts 120°
2026-04-22 13:40 54.07247 1.21924 37504 ft 448 kts 120°
2026-04-22 13:40 54.04001 1.31020 37499 ft 453 kts 120°
2026-04-22 13:41 54.00711 1.40205 37489 ft 455 kts 120°
2026-04-22 13:41 53.97420 1.49356 37474 ft 450 kts 120°
2026-04-22 13:42 53.94193 1.58297 37480 ft 443 kts 120°
2026-04-22 13:42 53.90961 1.67224 37486 ft 442 kts 120°
2026-04-22 13:43 53.87748 1.76065 37483 ft 442 kts 120°
2026-04-22 13:43 53.84511 1.84942 37484 ft 442 kts 120°
2026-04-22 13:44 53.81288 1.93747 37481 ft 443 kts 120°
2026-04-22 13:44 53.78027 2.02623 37480 ft 444 kts 120°
2026-04-22 13:45 53.74745 2.11525 37481 ft 446 kts 120°
2026-04-22 13:45 53.71450 2.20434 37477 ft 447 kts 120°
2026-04-22 13:46 53.68153 2.29315 37474 ft 448 kts 121°
2026-04-22 13:46 53.64828 2.38237 37469 ft 449 kts 120°
2026-04-22 13:47 53.61509 2.47112 37465 ft 450 kts 120°
2026-04-22 13:47 53.58162 2.56031 37468 ft 450 kts 121°
2026-04-22 13:48 53.54805 2.64944 37469 ft 450 kts 121°
2026-04-22 13:48 53.51467 2.73778 37461 ft 449 kts 121°
2026-04-22 13:49 53.48108 2.82633 37462 ft 449 kts 121°
2026-04-22 13:49 53.44762 2.91425 37461 ft 448 kts 121°
2026-04-22 13:50 53.41391 3.00253 37458 ft 447 kts 121°
2026-04-22 13:50 53.38042 3.08989 37457 ft 447 kts 121°
2026-04-22 13:51 53.34670 3.17758 37454 ft 446 kts 121°
2026-04-22 13:51 53.31296 3.26503 37455 ft 446 kts 121°
2026-04-22 13:52 53.27941 3.35172 37449 ft 446 kts 121°
2026-04-22 13:52 53.23998 3.43188 37455 ft 449 kts 137°
2026-04-22 13:53 53.18800 3.48936 37460 ft 451 kts 150°
2026-04-22 13:53 53.13263 3.53926 37446 ft 452 kts 150°
2026-04-22 13:54 53.07743 3.58994 37442 ft 453 kts 149°
2026-04-22 13:54 53.02267 3.64085 37440 ft 453 kts 149°
2026-04-22 13:55 52.97181 3.70173 37444 ft 450 kts 133°
2026-04-22 13:55 52.93353 3.78328 37453 ft 447 kts 122°
2026-04-22 13:56 52.89912 3.86937 37438 ft 448 kts 121°
2026-04-22 13:56 52.86468 3.95491 37429 ft 449 kts 122°
2026-04-22 13:57 52.82959 4.04083 37426 ft 450 kts 122°
2026-04-22 13:57 52.79458 4.12586 37418 ft 450 kts 122°
2026-04-22 13:58 52.75916 4.21154 37420 ft 450 kts 122°
2026-04-22 13:58 52.72377 4.29686 37413 ft 450 kts 122°
2026-04-22 13:59 52.68853 4.38155 37414 ft 449 kts 122°
2026-04-22 13:59 52.65306 4.46652 37415 ft 449 kts 122°
2026-04-22 14:00 52.61779 4.55074 37405 ft 448 kts 122°
2026-04-22 14:00 52.58230 4.63519 37404 ft 448 kts 122°
2026-04-22 14:01 52.54692 4.71912 37404 ft 448 kts 122°
2026-04-22 14:01 52.51131 4.80330 37403 ft 447 kts 122°
2026-04-22 14:02 52.47587 4.88682 37397 ft 447 kts 122°
2026-04-22 14:02 52.44024 4.97050 37404 ft 447 kts 122°
2026-04-22 14:03 52.40473 5.05364 37401 ft 447 kts 123°
2026-04-22 14:03 52.36890 5.13727 37399 ft 447 kts 123°
2026-04-22 14:04 52.33326 5.22017 37396 ft 448 kts 123°
2026-04-22 14:04 52.29733 5.30346 37392 ft 448 kts 123°
2026-04-22 14:05 52.26124 5.38686 37391 ft 448 kts 123°
2026-04-22 14:06 52.20733 5.51096 37386 ft 449 kts 123°
2026-04-22 14:06 52.17105 5.59415 37372 ft 450 kts 123°
2026-04-22 14:07 52.13462 5.67739 37375 ft 450 kts 123°
2026-04-22 14:07 52.09841 5.75993 37379 ft 451 kts 123°
2026-04-22 14:08 52.05937 5.84021 37378 ft 454 kts 134°
2026-04-22 14:08 52.01035 5.90465 37385 ft 456 kts 140°
2026-04-22 14:09 51.95970 5.96710 37372 ft 456 kts 140°
2026-04-22 14:09 51.90955 6.02935 37375 ft 456 kts 140°
2026-04-22 14:10 51.85917 6.09241 37366 ft 456 kts 140°
2026-04-22 14:10 51.80924 6.15500 37355 ft 456 kts 140°
2026-04-22 14:11 51.75900 6.21783 37354 ft 456 kts 140°
2026-04-22 14:11 51.70893 6.28024 37360 ft 456 kts 140°
2026-04-22 14:12 51.65864 6.34273 37354 ft 457 kts 140°
2026-04-22 14:12 51.61643 6.39503 37350 ft 457 kts 140°
2026-04-22 14:13 51.56621 6.45710 37342 ft 457 kts 140°
2026-04-22 14:13 51.50760 6.52931 37345 ft 456 kts 140°
2026-04-22 14:14 51.46529 6.58130 37345 ft 456 kts 140°
2026-04-22 14:14 51.41513 6.64276 37349 ft 456 kts 140°
2026-04-22 14:15 51.36451 6.70461 37347 ft 456 kts 140°
2026-04-22 14:15 51.31414 6.76598 37357 ft 456 kts 140°
2026-04-22 14:16 51.26348 6.82754 37348 ft 456 kts 140°
2026-04-22 14:16 51.21316 6.88850 37346 ft 456 kts 140°
2026-04-22 14:17 51.16241 6.94981 37346 ft 456 kts 140°
2026-04-22 14:17 51.11206 7.01046 37342 ft 456 kts 140°
2026-04-22 14:18 51.06133 7.07141 37327 ft 457 kts 141°
2026-04-22 14:18 51.01055 7.13225 37325 ft 457 kts 141°
2026-04-22 14:19 50.95984 7.19283 37323 ft 457 kts 141°
2026-04-22 14:19 50.90885 7.25356 37323 ft 458 kts 141°
2026-04-22 14:20 50.83261 7.34406 37320 ft 458 kts 141°
2026-04-22 14:20 50.78143 7.40462 37325 ft 458 kts 141°
2026-04-22 14:21 50.70492 7.49481 37319 ft 458 kts 141°
2026-04-22 14:22 50.62835 7.58470 37322 ft 458 kts 141°
2026-04-22 14:23 50.55170 7.67431 37320 ft 458 kts 141°
2026-04-22 14:23 50.50034 7.73414 37325 ft 459 kts 141°
2026-04-22 14:24 50.44894 7.79386 37328 ft 459 kts 141°
2026-04-22 14:24 50.39781 7.85311 37323 ft 459 kts 141°
2026-04-22 14:25 50.34623 7.91270 37325 ft 459 kts 141°
2026-04-22 14:25 50.29470 7.97209 37327 ft 459 kts 141°
2026-04-22 14:26 50.24334 8.03112 37317 ft 460 kts 141°
2026-04-22 14:26 50.19160 8.09043 37321 ft 460 kts 141°
2026-04-22 14:27 50.14017 8.14919 37309 ft 460 kts 142°
2026-04-22 14:27 50.08570 8.20248 37316 ft 461 kts 148°
2026-04-22 14:28 50.03040 8.25242 37310 ft 462 kts 148°
2026-04-22 14:28 49.97491 8.30308 37315 ft 461 kts 147°
2026-04-22 14:29 49.91965 8.35404 37312 ft 462 kts 147°
2026-04-22 14:29 49.86465 8.40466 37314 ft 462 kts 147°
2026-04-22 14:30 49.81476 8.46647 37309 ft 458 kts 133°
2026-04-22 14:30 49.76887 8.53538 37292 ft 459 kts 134°
2026-04-22 14:31 49.71875 8.59579 37297 ft 463 kts 151°
2026-04-22 14:31 49.65777 8.62800 37297 ft 466 kts 169°
2026-04-22 14:32 49.59350 8.64424 37292 ft 467 kts 170°
2026-04-22 14:32 49.52959 8.66103 37294 ft 468 kts 169°
2026-04-22 14:33 49.46590 8.68034 37283 ft 468 kts 163°
2026-04-22 14:33 49.40571 8.71815 37296 ft 467 kts 154°
2026-04-22 14:34 49.34655 8.76051 37288 ft 468 kts 154°
2026-04-22 14:34 49.28774 8.80203 37283 ft 468 kts 154°
2026-04-22 14:35 49.22817 8.84338 37282 ft 469 kts 154°
2026-04-22 14:35 49.16857 8.88444 37270 ft 469 kts 154°
2026-04-22 14:36 49.10928 8.92517 37271 ft 469 kts 154°
2026-04-22 14:36 49.04947 8.96619 37258 ft 469 kts 154°
2026-04-22 14:37 48.99024 9.00671 37259 ft 469 kts 154°
2026-04-22 14:37 48.93053 9.04744 37256 ft 469 kts 154°
2026-04-22 14:38 48.87129 9.08776 37246 ft 469 kts 155°
2026-04-22 14:38 48.81169 9.12822 37235 ft 469 kts 155°
2026-04-22 14:39 48.75198 9.16864 37242 ft 469 kts 155°
2026-04-22 14:39 48.69263 9.20873 37242 ft 469 kts 155°
2026-04-22 14:40 48.60291 9.26837 37236 ft 469 kts 157°
2026-04-22 14:40 48.54165 9.30309 37238 ft 470 kts 159°
2026-04-22 14:41 48.48040 9.33652 37244 ft 470 kts 159°
2026-04-22 14:41 48.41878 9.37069 37236 ft 471 kts 159°
2026-04-22 14:42 48.35761 9.40487 37233 ft 471 kts 159°
2026-04-22 14:42 48.29594 9.43925 37233 ft 472 kts 159°
2026-04-22 14:43 48.23433 9.47215 37241 ft 472 kts 162°
2026-04-22 14:43 48.17095 9.49931 37234 ft 473 kts 165°
2026-04-22 14:44 48.10737 9.52587 37232 ft 473 kts 164°
2026-04-22 14:44 48.04435 9.55316 37231 ft 474 kts 162°
2026-04-22 14:45 47.98511 9.59618 37219 ft 472 kts 144°
2026-04-22 14:45 47.93140 9.65190 37221 ft 473 kts 143°
2026-04-22 14:46 47.90449 9.68009 37224 ft 473 kts 144°
2026-04-22 14:46 47.84352 9.74313 37213 ft 474 kts 144°
2026-04-22 14:47 47.78926 9.79842 37212 ft 474 kts 144°
2026-04-22 14:47 47.73456 9.85382 37210 ft 475 kts 144°
2026-04-22 14:48 47.68012 9.90882 37208 ft 475 kts 144°
2026-04-22 14:48 47.62531 9.96408 37199 ft 475 kts 144°
2026-04-22 14:49 47.57055 10.01916 37191 ft 476 kts 144°
2026-04-22 14:49 47.51594 10.07395 37186 ft 476 kts 145°
2026-04-22 14:50 47.46099 10.12894 37173 ft 476 kts 145°
2026-04-22 14:50 47.40639 10.18344 37175 ft 476 kts 145°
2026-04-22 14:51 47.35139 10.23820 37167 ft 476 kts 145°
2026-04-22 14:51 47.29634 10.29287 37172 ft 476 kts 145°
2026-04-22 14:52 47.24133 10.34736 37174 ft 475 kts 145°
2026-04-22 14:52 47.18658 10.40147 37170 ft 477 kts 145°
2026-04-22 14:53 47.13103 10.45623 37155 ft 480 kts 145°
2026-04-22 14:53 47.07565 10.51049 37149 ft 482 kts 148°
2026-04-22 14:54 47.01459 10.55047 37149 ft 481 kts 163°
2026-04-22 14:54 46.95021 10.57797 37139 ft 480 kts 164°
2026-04-22 14:55 46.88664 10.60592 37147 ft 479 kts 163°
2026-04-22 14:55 46.82291 10.63475 37137 ft 478 kts 163°
2026-04-22 14:56 46.75957 10.66311 37135 ft 478 kts 164°
2026-04-22 14:56 46.69596 10.69222 37140 ft 477 kts 162°
2026-04-22 14:57 46.63374 10.72466 37141 ft 478 kts 160°
2026-04-22 14:57 46.57083 10.75833 37135 ft 483 kts 161°
2026-04-22 14:58 46.51796 10.78622 37112 ft 487 kts 161°
2026-04-22 14:58 46.45465 10.81918 37104 ft 478 kts 161°
2026-04-22 14:59 46.39249 10.85130 37110 ft 475 kts 161°
2026-04-22 14:59 46.33017 10.88339 37085 ft 474 kts 162°
2026-04-22 15:00 46.26773 10.91551 37126 ft 477 kts 162°
2026-04-22 15:00 46.20486 10.94778 37136 ft 480 kts 162°
2026-04-22 15:01 46.14204 10.97996 37123 ft 481 kts 162°
2026-04-22 15:01 46.07882 11.01224 37129 ft 481 kts 162°
2026-04-22 15:02 46.01550 11.04451 37145 ft 484 kts 162°
2026-04-22 15:02 45.95191 11.07683 37171 ft 484 kts 162°
2026-04-22 15:03 45.88876 11.10885 37172 ft 485 kts 162°
2026-04-22 15:03 45.82492 11.14114 37161 ft 487 kts 162°
2026-04-22 15:04 45.76082 11.17349 37174 ft 488 kts 162°
2026-04-22 15:04 45.69709 11.20557 37170 ft 488 kts 163°
2026-04-22 15:05 45.63294 11.23779 37173 ft 487 kts 163°
2026-04-22 15:05 45.56898 11.26983 37168 ft 486 kts 163°
2026-04-22 15:06 45.50516 11.30173 37170 ft 485 kts 163°
2026-04-22 15:06 45.44185 11.33329 37176 ft 483 kts 163°
2026-04-22 15:07 45.37830 11.36490 37164 ft 482 kts 163°
2026-04-22 15:07 45.31533 11.39614 37172 ft 481 kts 163°
2026-04-22 15:08 45.25219 11.42740 37169 ft 480 kts 163°
2026-04-22 15:08 45.18904 11.45859 37171 ft 479 kts 163°
2026-04-22 15:09 45.12600 11.48964 37175 ft 480 kts 164°
2026-04-22 15:09 45.06312 11.52054 37177 ft 480 kts 164°
2026-04-22 15:10 44.99975 11.55161 37178 ft 482 kts 164°
2026-04-22 15:10 44.93623 11.58269 37178 ft 483 kts 164°
2026-04-22 15:11 44.87271 11.61369 37177 ft 485 kts 164°
2026-04-22 15:11 44.80867 11.64487 37177 ft 487 kts 164°
2026-04-22 15:12 44.74484 11.67588 37173 ft 488 kts 165°
2026-04-22 15:12 44.68063 11.70700 37172 ft 490 kts 165°
2026-04-22 15:13 44.61603 11.73824 37172 ft 491 kts 165°
2026-04-22 15:13 44.55176 11.76925 37174 ft 491 kts 165°
2026-04-22 15:14 44.48694 11.80044 37170 ft 491 kts 165°
2026-04-22 15:14 44.42211 11.83158 37168 ft 492 kts 165°
2026-04-22 15:15 44.35756 11.86250 37161 ft 492 kts 165°
2026-04-22 15:15 44.32513 11.87800 36934 ft 494 kts 165°
2026-04-22 15:15 44.29263 11.89352 36580 ft 491 kts 166°
2026-04-22 15:16 44.26083 11.90872 36194 ft 486 kts 166°
2026-04-22 15:16 44.22893 11.92396 35797 ft 482 kts 166°
2026-04-22 15:16 44.19722 11.93906 35396 ft 479 kts 167°
2026-04-22 15:16 44.16561 11.95409 34976 ft 477 kts 167°
2026-04-22 15:17 44.13421 11.96899 34573 ft 476 kts 168°
2026-04-22 15:17 44.10290 11.98384 34145 ft 474 kts 168°
2026-04-22 15:17 44.07204 11.99845 33691 ft 473 kts 169°
2026-04-22 15:17 44.04095 12.01317 33288 ft 470 kts 169°
2026-04-22 15:18 44.01002 12.02780 32877 ft 468 kts 169°
2026-04-22 15:18 43.97926 12.04233 32482 ft 466 kts 169°
2026-04-22 15:18 43.94856 12.05681 32072 ft 463 kts 170°
2026-04-22 15:18 43.91802 12.07120 31691 ft 461 kts 170°
2026-04-22 15:19 43.88808 12.08530 31318 ft 458 kts 170°
2026-04-22 15:19 43.85790 12.09949 30960 ft 456 kts 171°
2026-04-22 15:19 43.82791 12.11357 30566 ft 455 kts 171°
2026-04-22 15:19 43.79788 12.12765 30183 ft 453 kts 171°
2026-04-22 15:20 43.77808 12.13693 29869 ft 452 kts 171°
2026-04-22 15:20 43.73830 12.15557 29306 ft 447 kts 171°
2026-04-22 15:20 43.70919 12.16918 28932 ft 444 kts 171°
2026-04-22 15:20 43.67996 12.18285 28543 ft 442 kts 171°
2026-04-22 15:21 43.65090 12.19625 28150 ft 437 kts 173°
2026-04-22 15:21 43.62166 12.20515 27785 ft 421 kts 183°
2026-04-22 15:21 43.59290 12.20768 27163 ft 409 kts 194°
2026-04-22 15:21 43.56455 12.20599 26781 ft 406 kts 195°
2026-04-22 15:22 43.53674 12.20421 26382 ft 404 kts 194°
2026-04-22 15:22 43.50870 12.20250 26008 ft 401 kts 194°
2026-04-22 15:22 43.48093 12.20092 25638 ft 398 kts 194°
2026-04-22 15:22 43.45323 12.19944 25258 ft 396 kts 194°
2026-04-22 15:23 43.42583 12.19801 24905 ft 392 kts 194°
2026-04-22 15:23 43.39894 12.19667 24560 ft 389 kts 194°
2026-04-22 15:23 43.37187 12.19531 24189 ft 387 kts 194°
2026-04-22 15:23 43.34497 12.19396 23820 ft 386 kts 194°
2026-04-22 15:24 43.31816 12.19260 23409 ft 384 kts 193°
2026-04-22 15:24 43.29154 12.19128 23029 ft 382 kts 193°
2026-04-22 15:24 43.26503 12.18995 22626 ft 380 kts 193°
2026-04-22 15:24 43.23864 12.18861 22260 ft 376 kts 193°
2026-04-22 15:25 43.21256 12.18733 21915 ft 373 kts 193°
2026-04-22 15:25 43.18671 12.18604 21573 ft 370 kts 192°
2026-04-22 15:25 43.16131 12.18477 21217 ft 368 kts 192°
2026-04-22 15:25 43.13579 12.18349 20882 ft 366 kts 192°
2026-04-22 15:26 43.11036 12.18223 20524 ft 364 kts 192°
2026-04-22 15:26 43.08510 12.18104 20177 ft 363 kts 189°
2026-04-22 15:26 43.05989 12.18390 19854 ft 372 kts 176°
2026-04-22 15:26 43.03497 12.19387 19642 ft 372 kts 167°
2026-04-22 15:27 43.01068 12.20613 19331 ft 372 kts 165°
2026-04-22 15:27 42.98642 12.21874 19014 ft 370 kts 165°
2026-04-22 15:27 42.96227 12.23113 18644 ft 370 kts 165°
2026-04-22 15:27 42.93811 12.24327 18282 ft 370 kts 166°
2026-04-22 15:28 42.91397 12.25522 17897 ft 369 kts 165°
2026-04-22 15:28 42.88991 12.26708 17538 ft 366 kts 165°
2026-04-22 15:28 42.86626 12.27867 17222 ft 364 kts 165°
2026-04-22 15:28 42.84243 12.29031 16894 ft 362 kts 165°
2026-04-22 15:29 42.81877 12.30186 16555 ft 360 kts 165°
2026-04-22 15:29 42.79524 12.31383 16223 ft 360 kts 159°
2026-04-22 15:29 42.77317 12.32928 15905 ft 360 kts 152°
2026-04-22 15:30 42.73736 12.35877 15355 ft 357 kts 150°
2026-04-22 15:30 42.70937 12.38221 14920 ft 356 kts 150°
2026-04-22 15:30 42.68821 12.39963 14581 ft 354 kts 150°
2026-04-22 15:30 42.66708 12.41680 14249 ft 353 kts 150°
2026-04-22 15:31 42.64598 12.43376 13920 ft 352 kts 150°
2026-04-22 15:31 42.62488 12.45063 13551 ft 350 kts 150°
2026-04-22 15:31 42.60412 12.46717 13185 ft 348 kts 150°
2026-04-22 15:31 42.58322 12.48378 12830 ft 346 kts 150°
2026-04-22 15:32 42.56244 12.50027 12497 ft 343 kts 150°
2026-04-22 15:32 42.54187 12.51660 12170 ft 341 kts 150°
2026-04-22 15:32 42.52149 12.53277 11840 ft 338 kts 150°
2026-04-22 15:32 42.50123 12.54881 11509 ft 336 kts 150°
2026-04-22 15:33 42.48132 12.56456 11202 ft 333 kts 150°
2026-04-22 15:33 42.46135 12.58037 10877 ft 330 kts 149°
2026-04-22 15:33 42.44157 12.59599 10578 ft 328 kts 149°
2026-04-22 15:33 42.42185 12.61155 10258 ft 326 kts 149°
2026-04-22 15:34 42.40175 12.62495 10062 ft 318 kts 165°
2026-04-22 15:34 42.38062 12.62806 10020 ft 302 kts 187°
2026-04-22 15:34 42.36015 12.62427 9682 ft 300 kts 192°
2026-04-22 15:34 42.33956 12.61942 9321 ft 300 kts 192°
2026-04-22 15:35 42.32567 12.61612 9094 ft 299 kts 192°
2026-04-22 15:35 42.29859 12.60991 8729 ft 296 kts 191°
2026-04-22 15:35 42.27835 12.60544 8455 ft 293 kts 191°
2026-04-22 15:35 42.25840 12.60109 8195 ft 290 kts 191°
2026-04-22 15:36 42.23878 12.59546 7936 ft 285 kts 199°
2026-04-22 15:36 42.22018 12.58651 7669 ft 282 kts 203°
2026-04-22 15:36 42.20225 12.57702 7427 ft 279 kts 203°
2026-04-22 15:36 42.18421 12.56752 7186 ft 277 kts 202°
2026-04-22 15:37 42.16628 12.55831 6934 ft 275 kts 202°
2026-04-22 15:37 42.14845 12.54934 6689 ft 272 kts 201°
2026-04-22 15:37 42.13075 12.54054 6460 ft 270 kts 201°
2026-04-22 15:37 42.11312 12.53181 6187 ft 269 kts 200°
2026-04-22 15:38 42.09624 12.52346 5934 ft 268 kts 201°
2026-04-22 15:38 42.06181 12.50647 5313 ft 257 kts 200°
2026-04-22 15:38 42.04502 12.49820 4996 ft 253 kts 200°
2026-04-22 15:39 42.02867 12.49015 4729 ft 248 kts 200°
2026-04-22 15:39 42.01251 12.48219 4445 ft 243 kts 201°
2026-04-22 15:39 41.99695 12.47453 4171 ft 238 kts 200°
2026-04-22 15:39 41.98078 12.47179 3873 ft 235 kts 167°
2026-04-22 15:40 41.96597 12.47972 3718 ft 223 kts 152°
2026-04-22 15:40 41.95249 12.48888 3546 ft 215 kts 152°
2026-04-22 15:40 41.93935 12.49794 3280 ft 214 kts 151°
2026-04-22 15:40 41.92606 12.50718 2990 ft 211 kts 151°
2026-04-22 15:41 41.91332 12.51598 2707 ft 203 kts 152°
2026-04-22 15:41 41.90113 12.52441 2434 ft 192 kts 152°
2026-04-22 15:41 41.88977 12.53226 2215 ft 175 kts 152°
2026-04-22 15:41 41.87947 12.53938 1995 ft 156 kts 150°
2026-04-22 15:42 41.87010 12.54587 1765 ft 148 kts 150°
2026-04-22 15:42 41.86098 12.55219 1578 ft 148 kts 150°
2026-04-22 15:42 41.85176 12.55858 1393 ft 151 kts 150°
2026-04-22 15:42 41.84241 12.56504 1152 ft 150 kts 150°
2026-04-22 15:43 41.83329 12.57135 989 ft 148 kts 153°
2026-04-22 15:43 41.82394 12.57784 777 ft 153 kts 151°
2026-04-22 15:43 41.81457 12.58439 632 ft 151 kts 151°
2026-04-22 15:43 41.80521 12.59083 427 ft 149 kts 153°
2026-04-22 15:44 41.79686 12.59655 410 ft 116 kts 153°
2026-04-22 15:44 41.79174 12.60009 410 ft 38 kts 153°
2026-04-22 15:44 41.79070 12.60053 412 ft 10 kts 202°
2026-04-22 15:44 41.79025 12.59953 407 ft 11 kts 255°
2026-04-22 15:45 41.79069 12.59879 406 ft 11 kts 332°
2026-04-22 15:45 41.79113 12.59849 404 ft 6 kts 333°
2026-04-22 15:45 41.79151 12.59823 403 ft 6 kts 333°
2026-04-22 15:45 41.79191 12.59795 406 ft 7 kts 332°
2026-04-22 15:46 41.79222 12.59774 406 ft 8 kts 333°
2026-04-22 15:46 41.79301 12.59720 406 ft 11 kts 332°
2026-04-22 15:46 41.79349 12.59686 406 ft 12 kts 333°
2026-04-22 15:46 41.79424 12.59635 406 ft 12 kts 332°
2026-04-22 15:47 41.79504 12.59579 404 ft 12 kts 332°
2026-04-22 15:47 41.79575 12.59530 406 ft 5 kts 333°
2026-04-22 15:47 41.79614 12.59504 406 ft 7 kts 333°
2026-04-22 15:47 41.79665 12.59469 406 ft 9 kts 333°
2026-04-22 15:48 41.79728 12.59425 406 ft 11 kts 333°
2026-04-22 15:48 41.79786 12.59385 404 ft 10 kts 332°
2026-04-22 15:48 41.79849 12.59341 406 ft 11 kts 333°
2026-04-22 15:48 41.79925 12.59289 406 ft 13 kts 333°
2026-04-22 15:49 41.80011 12.59230 406 ft 15 kts 333°
2026-04-22 15:49 41.80104 12.59165 406 ft 13 kts 333°
2026-04-22 15:49 41.80168 12.59121 406 ft 3 kts 331°
2026-04-22 15:49 41.80179 12.59091 406 ft 5 kts 267°
2026-04-22 15:50 41.80158 12.59041 405 ft 8 kts 233°
2026-04-22 15:50 41.80119 12.58975 405 ft 10 kts 232°
2026-04-22 15:50 41.80109 12.58957 405 ft 2 kts 232°
2026-04-22 15:50 41.80093 12.58930 405 ft 5 kts 226°
2026-04-22 15:51 41.80066 12.58937 405 ft 4 kts 147°
2026-04-22 15:51 41.80045 12.58966 405 ft 2 kts 123°
2026-04-22 15:51 41.80040 12.58976 405 ft 0 kts 123°